DW6455 Orivesi FI current weather conditions

sailwx.info

Wind from 281 at 1 knots gusting 6

Air temperature -2.2° C
Dewpoint -5.4° C

Last reported at 2017-Mar-24 00:52 UTC.
Time now 2017-Mar-24 01:59 UTC

Location: N 61°39' E 024°21'.
View on Google Maps.

See reports from other nearby stations

  
Tides and Currents Weather Stations Pressure Air Temp Water Temp Dewpoint Dewpoint Depression Visibility Wind Speed Wind Dir Waves Ship Positions
date/time (UTC)wind fromknots sea level pressurealtimeterstation pressurevisibilityair tempwater tempwave heightnotes
2017-Mar-24 00:52 281 1 gusting 6 -2.2
2017-Mar-24 00:47 300 1 gusting 6 -2.2
2017-Mar-24 00:42 303 1 gusting 6 -2.2
2017-Mar-24 00:37 280 1 gusting 6 -2.2
2017-Mar-24 00:32 321 1 gusting 6 -2.2
2017-Mar-24 00:27 276 1 gusting 8 -1.7
2017-Mar-24 00:22 304 1 gusting 8 -1.7
2017-Mar-24 00:17 305 1 gusting 8 -1.7
2017-Mar-24 00:12 308 2 gusting 9 -1.7
2017-Mar-24 00:07 297 2 gusting 9 -1.7
2017-Mar-24 00:02 312 1 gusting 9 -1.7
2017-Mar-23 23:57 302 1 gusting 6 -1.7
2017-Mar-23 23:52 324 1 gusting 6 -1.7
2017-Mar-23 23:47 287 1 gusting 7 -1.7
2017-Mar-23 23:42 292 1 gusting 7 -1.7
2017-Mar-23 23:37 307 2 gusting 7 -1.7
2017-Mar-23 23:32 295 2 gusting 9 -1.7
2017-Mar-23 23:27 321 2 gusting 9 -1.7
2017-Mar-23 23:22 291 2 gusting 9 -1.7
2017-Mar-23 23:17 284 2 gusting 10 -1.7
2017-Mar-23 23:12 302 2 gusting 10 -1.1
2017-Mar-23 23:07 295 2 gusting 10 -1.1
2017-Mar-23 23:02 296 2 gusting 10 -1.1
2017-Mar-23 22:57 299 2 gusting 10 -1.1
2017-Mar-23 22:52 327 2 gusting 10 -1.1
2017-Mar-23 22:47 296 2 gusting 10 -1.1
2017-Mar-23 22:42 296 3 gusting 10 -1.1
2017-Mar-23 22:37 287 2 gusting 7 -1.1
2017-Mar-23 22:32 263 2 gusting 7 -1.1
2017-Mar-23 22:27 294 2 gusting 7 -1.1
2017-Mar-23 22:22 293 2 gusting 9 -1.1
2017-Mar-23 22:17 272 2 gusting 9 -1.1
2017-Mar-23 22:12 280 2 gusting 9 -1.1
2017-Mar-23 22:07 306 2 gusting 6 -1.1
2017-Mar-23 22:02 331 1 gusting 6 -1.1
2017-Mar-23 21:57 292 2 gusting 6 -1.1
2017-Mar-23 21:52 294 2 gusting 6 -1.1
2017-Mar-23 21:47 288 2 gusting 6 -1.1
2017-Mar-23 21:42 304 2 gusting 6 -1.1
2017-Mar-23 21:37 322 2 gusting 9 -1.1
2017-Mar-23 21:32 288 2 gusting 9 -0.6
2017-Mar-23 21:27 275 2 gusting 9 -0.6
2017-Mar-23 21:22 292 2 gusting 9 -0.6
2017-Mar-23 21:17 292 2 gusting 9 -0.6
2017-Mar-23 21:12 293 2 gusting 7 -0.6
2017-Mar-23 21:07 281 2 gusting 7 -0.6
2017-Mar-23 21:02 292 1 gusting 7 -0.6
2017-Mar-23 20:57 275 2 gusting 7 -0.6
2017-Mar-23 20:52 263 2 gusting 7 -1.1
2017-Mar-23 20:47 275 2 gusting 6 -1.1
2017-Mar-23 20:42 288 2 gusting 6 -1.1
2017-Mar-23 20:37 253 1 gusting 7 -1.1
2017-Mar-23 20:32 272 1 gusting 7 -1.1
2017-Mar-23 20:27 290 1 gusting 7 -1.1
2017-Mar-23 20:22 290 1 gusting 7 -1.1
2017-Mar-23 20:17 284 1 gusting 9 -1.1
2017-Mar-23 20:12 265 1 gusting 9 -1.1
2017-Mar-23 20:07 279 2 gusting 9 -0.6
2017-Mar-23 20:02 271 3 gusting 9 -0.6
2017-Mar-23 19:57 265 3 gusting 9 -0.6
2017-Mar-23 19:52 273 2 gusting 7 -0.6
2017-Mar-23 19:47 261 2 gusting 7 -0.6
2017-Mar-23 19:42 262 2 gusting 7 -1.1
2017-Mar-23 19:37 259 2 gusting 8 -0.6
2017-Mar-23 19:32 271 2 gusting 8 -0.6
2017-Mar-23 19:27 271 2 gusting 6 -1.1
2017-Mar-23 19:22 259 2 gusting 6 -1.1
2017-Mar-23 19:17 293 1 gusting 6 -1.1
2017-Mar-23 19:12 253 1 gusting 5 -1.1
2017-Mar-23 19:07 253 2 gusting 5 -1.1
2017-Mar-23 19:02 263 1 gusting 5 -1.1
2017-Mar-23 18:57 246 0 gusting 5 -1.1
2017-Mar-23 18:52 245 1 gusting 5 -1.1
2017-Mar-23 18:47 261 1 gusting 6 -1.1
2017-Mar-23 18:42 234 1 gusting 6 -1.1
2017-Mar-23 18:37 245 1 gusting 3 -0.6
2017-Mar-23 18:32 235 1 gusting 3 -0.6
2017-Mar-23 18:27 265 1 gusting 3 -0.6
2017-Mar-23 18:22 220 1 gusting 3 -0.6
2017-Mar-23 18:17 239 0 gusting 6 -0.6
2017-Mar-23 18:12 250 0 gusting 6 -0.0
2017-Mar-23 18:07 249 0 gusting 8 -0.0
2017-Mar-23 18:02 242 1 gusting 8 -0.0
2017-Mar-23 17:57 258 2 gusting 8 -0.0
2017-Mar-23 17:52 258 1 gusting 10 0.6
2017-Mar-23 17:47 276 1 gusting 10 0.6
2017-Mar-23 17:42 279 2 gusting 10 0.6
2017-Mar-23 17:37 277 2 gusting 6 0.6
2017-Mar-23 17:32 288 1 gusting 6 0.6
2017-Mar-23 17:27 292 0 gusting 6 0.6
2017-Mar-23 17:22 272 1 gusting 8 0.6
2017-Mar-23 17:17 273 1 gusting 8 0.6
2017-Mar-23 17:12 275 1 gusting 8 1.1
2017-Mar-23 17:07 270 2 gusting 8 1.1
2017-Mar-23 17:02 295 2 gusting 9 1.1
2017-Mar-23 16:57 278 3 gusting 9 1.7
2017-Mar-23 16:52 277 4 gusting 9 1.7
2017-Mar-23 16:47 288 4 gusting 13 1.7
2017-Mar-23 16:42 315 4 gusting 13 1.7
2017-Mar-23 16:37 308 4 gusting 13 1.7
2017-Mar-23 16:32 281 5 gusting 8 1.7
2017-Mar-23 16:27 286 5 gusting 8 2.2
2017-Mar-23 16:22 286 3 gusting 8 2.2
2017-Mar-23 16:17 286 2 gusting 12 2.2
2017-Mar-23 16:12 271 3 gusting 12 2.2
2017-Mar-23 16:07 274 2 gusting 12 2.2
2017-Mar-23 16:02 316 3 gusting 12 2.2
2017-Mar-23 15:57 270 3 gusting 12 2.2
2017-Mar-23 15:52 275 3 gusting 12 2.2
2017-Mar-23 15:47 236 4 gusting 11 2.8
2017-Mar-23 15:42 296 4 gusting 11 2.8
2017-Mar-23 15:37 293 3 gusting 13 2.8
2017-Mar-23 15:32 317 4 gusting 13 2.8
2017-Mar-23 15:27 298 5 gusting 13 2.8
2017-Mar-23 15:22 261 6 gusting 13 2.8
2017-Mar-23 15:17 292 5 gusting 13 3.3
2017-Mar-23 15:12 263 4 gusting 13 3.3
2017-Mar-23 15:07 279 5 gusting 13 3.3
2017-Mar-23 15:02 286 6 gusting 13 3.3
2017-Mar-23 14:57 277 5 gusting 13 3.3
2017-Mar-23 14:52 261 3 gusting 15 3.3
2017-Mar-23 14:47 278 5 gusting 15 3.3
2017-Mar-23 14:42 295 5 gusting 15 3.3
2017-Mar-23 14:37 301 3 gusting 15 3.3
2017-Mar-23 14:32 284 3 gusting 15 3.9
2017-Mar-23 14:27 264 5 gusting 13 3.9
2017-Mar-23 14:22 281 4 gusting 13 3.9
2017-Mar-23 14:17 309 4 gusting 13 4.4
2017-Mar-23 14:12 260 4 gusting 12 4.4
2017-Mar-23 14:07 294 5 gusting 12 4.4
2017-Mar-23 14:02 284 5 gusting 12 4.4
2017-Mar-23 13:57 285 5 gusting 16 4.4
2017-Mar-23 13:52 261 6 gusting 16 4.4
2017-Mar-23 13:47 267 6 gusting 15 4.4
2017-Mar-23 13:42 301 6 gusting 15 4.4
2017-Mar-23 13:37 263 6 gusting 17 4.4
2017-Mar-23 13:32 272 6 gusting 17 4.4
2017-Mar-23 13:27 279 6 gusting 17 4.4
2017-Mar-23 13:22 341 6 gusting 17 4.4
2017-Mar-23 13:17 244 6 gusting 13 4.4
2017-Mar-23 13:12 283 5 gusting 13 4.4
2017-Mar-23 13:07 288 5 gusting 19 4.4
2017-Mar-23 13:02 277 5 gusting 19 4.4
2017-Mar-23 12:57 279 5 gusting 19 4.4
2017-Mar-23 12:52 298 6 gusting 14 4.4
2017-Mar-23 12:47 250 6 gusting 14 4.4
2017-Mar-23 12:42 277 5 gusting 14 5.0
2017-Mar-23 12:37 255 5 gusting 13 5.0
2017-Mar-23 12:32 268 6 gusting 13 4.4
2017-Mar-23 12:27 278 6 gusting 16 4.4
2017-Mar-23 12:22 292 6 gusting 16 4.4
2017-Mar-23 12:17 296 6 gusting 16 4.4
2017-Mar-23 12:12 316 6 gusting 16 4.4
2017-Mar-23 12:07 301 6 gusting 16 4.4
2017-Mar-23 12:02 296 6 gusting 16 4.4
2017-Mar-23 11:57 288 6 gusting 16 4.4
2017-Mar-23 11:52 317 5 gusting 16 4.4
2017-Mar-23 11:47 311 4 gusting 19 4.4
2017-Mar-23 11:42 287 5 gusting 19 4.4
2017-Mar-23 11:37 286 6 gusting 19 4.4
2017-Mar-23 11:32 296 6 gusting 12 4.4
2017-Mar-23 11:27 290 6 gusting 12 4.4
2017-Mar-23 11:22 257 6 gusting 12 4.4
2017-Mar-23 11:17 263 5 gusting 18 4.4
2017-Mar-23 11:12 298 5 gusting 18 4.4
2017-Mar-23 11:07 267 6 gusting 18 4.4
2017-Mar-23 11:02 344 6 gusting 16 4.4
2017-Mar-23 10:57 290 7 gusting 16 3.9
2017-Mar-23 10:52 261 7 gusting 16 3.9
2017-Mar-23 10:47 257 7 gusting 15 3.9
2017-Mar-23 10:42 262 7 gusting 15 3.9
2017-Mar-23 10:37 230 7 gusting 15 3.9
2017-Mar-23 10:32 279 6 gusting 13 3.9
2017-Mar-23 10:27 284 6 gusting 13 3.9
2017-Mar-23 10:22 277 6 gusting 13 3.9
2017-Mar-23 10:17 248 6 gusting 15 3.9
2017-Mar-23 10:12 249 5 gusting 15 3.9
2017-Mar-23 10:07 281 4 gusting 15 3.9
2017-Mar-23 10:02 269 4 gusting 15 3.9
2017-Mar-23 09:57 319 5 gusting 19 3.9
2017-Mar-23 09:52 271 5 gusting 19 3.9
2017-Mar-23 09:47 261 5 gusting 13 3.9
2017-Mar-23 09:42 288 4 gusting 13 3.9
2017-Mar-23 09:37 278 4 gusting 11 3.3
2017-Mar-23 09:32 301 5 gusting 11 3.3
2017-Mar-23 09:27 302 5 gusting 11 3.3
2017-Mar-23 09:22 288 5 gusting 11 3.3
2017-Mar-23 09:17 282 5 gusting 11 3.3
2017-Mar-23 09:12 303 5 gusting 11 3.3
2017-Mar-23 09:07 302 4 gusting 13 3.3
2017-Mar-23 09:02 300 4 gusting 13 2.8
2017-Mar-23 08:57 290 4 gusting 13 2.8
2017-Mar-23 08:52 336 3 gusting 12 2.8
2017-Mar-23 08:47 282 3 gusting 12 2.8
2017-Mar-23 08:42 311 3 gusting 12 2.8
2017-Mar-23 08:37 301 3 gusting 10 2.8
2017-Mar-23 08:32 289 3 gusting 10 2.2
2017-Mar-23 08:27 277 4 gusting 10 2.2
2017-Mar-23 08:22 302 3 gusting 10 2.2
2017-Mar-23 08:17 351 2 gusting 10 2.2
2017-Mar-23 08:12 278 3 gusting 13 2.2
2017-Mar-23 08:07 308 4 gusting 13 1.7
2017-Mar-23 08:02 298 4 gusting 13 1.7
2017-Mar-23 07:57 296 5 gusting 13 1.7
2017-Mar-23 07:52 306 5 gusting 13 1.7
2017-Mar-23 07:47 298 5 gusting 13 1.7
2017-Mar-23 07:42 327 4 gusting 13 1.7
2017-Mar-23 07:37 280 4 gusting 10 1.1
2017-Mar-23 07:32 333 5 gusting 10 1.1
2017-Mar-23 07:27 301 5 gusting 10 1.1
2017-Mar-23 07:22 295 5 gusting 10 1.1
2017-Mar-23 07:17 289 3 gusting 12 1.1
2017-Mar-23 07:12 312 3 gusting 12 1.1
2017-Mar-23 07:07 309 4 gusting 11 1.1
2017-Mar-23 07:02 302 4 gusting 11 0.6
2017-Mar-23 06:57 286 4 gusting 11 0.6
2017-Mar-23 06:52 311 4 gusting 11 0.6
2017-Mar-23 06:47 302 4 gusting 11 0.6
2017-Mar-23 06:42 346 3 gusting 11 0.6
2017-Mar-23 06:37 320 3 gusting 13 0.6
2017-Mar-23 06:32 296 5 gusting 13 0.6
2017-Mar-23 06:27 286 5 gusting 12 0.6
2017-Mar-23 06:22 301 4 gusting 12 -0.0
2017-Mar-23 06:17 296 4 gusting 12 -0.0
2017-Mar-23 06:12 302 4 gusting 10 -0.0
2017-Mar-23 06:07 305 3 gusting 10 -0.0
2017-Mar-23 06:02 313 3 gusting 10 -0.0
2017-Mar-23 05:57 319 3 gusting 13 -0.6
2017-Mar-23 05:52 299 4 gusting 13 -0.6
2017-Mar-23 05:47 299 5 gusting 11 -0.6
2017-Mar-23 05:42 298 4 gusting 11 -0.6
2017-Mar-23 05:37 292 4 gusting 11 -0.6
2017-Mar-23 05:32 291 4 gusting 8 -0.6
2017-Mar-23 05:27 240 3 gusting 8 -0.6
2017-Mar-23 05:22 239 2 gusting 8 -1.1
2017-Mar-23 05:17 239 2 gusting 6 -1.1
2017-Mar-23 05:12 239 2 gusting 6 -1.1
2017-Mar-23 05:07 238 2 gusting 6 -1.1
2017-Mar-23 05:02 239 2 gusting 9 -1.1
2017-Mar-23 04:57 239 1 gusting 9 -1.1
2017-Mar-23 04:52 239 2 gusting 9 -1.7
2017-Mar-23 04:47 239 2 gusting 8 -1.7
2017-Mar-23 04:42 239 1 gusting 8 -1.7
2017-Mar-23 04:37 239 2 gusting 8 -1.7
2017-Mar-23 04:32 239 2 gusting 5 -1.7
2017-Mar-23 04:27 239 1 gusting 5 -2.2
2017-Mar-23 04:22 239 1 gusting 5 -2.2
2017-Mar-23 04:17 239 1 gusting 4 -2.2
2017-Mar-23 04:12 238 0 gusting 4 -2.8
2017-Mar-23 04:07 239 0 gusting 4 -2.8
2017-Mar-23 04:02 239 0 gusting 4 -2.8
2017-Mar-23 03:57 239 0 gusting 2 -3.3
2017-Mar-23 03:52 239 -3.3
2017-Mar-23 03:47 238 -3.3
2017-Mar-23 03:42 238 -3.3
2017-Mar-23 03:37 239 -3.3
2017-Mar-23 03:32 239 -2.8
2017-Mar-23 03:27 239 0 gusting 0 -2.8
2017-Mar-23 03:22 238 -2.8
2017-Mar-23 03:17 238 -2.8
2017-Mar-23 03:12 239 -2.8
2017-Mar-23 03:07 238 -2.8
2017-Mar-23 03:02 238 -2.8
2017-Mar-23 02:57 239 -2.8
2017-Mar-23 02:52 239 0 gusting 2 -2.8
2017-Mar-23 02:47 239 0 gusting 2 -2.8
2017-Mar-23 02:42 239 0 gusting 2 -2.8
2017-Mar-23 02:37 239 -2.8
2017-Mar-23 02:32 239 -2.8
2017-Mar-23 02:27 239 0 gusting 3 -2.8
2017-Mar-23 02:22 238 0 gusting 4 -2.8
2017-Mar-23 02:17 239 1 gusting 4 -2.8
2017-Mar-23 02:12 239 1 gusting 3 -2.8
2017-Mar-23 02:07 239 1 gusting 3 -2.8
2017-Mar-23 02:02 238 0 gusting 1 -2.8
2017-Mar-23 01:57 239 -2.2
2017-Mar-23 01:52 238 -2.2
2017-Mar-23 01:47 239 0 gusting 2 -2.2
2017-Mar-23 01:42 239 0 gusting 5 -2.2
2017-Mar-23 01:37 239 0 gusting 5 -2.2
2017-Mar-23 01:32 239 0 gusting 2 -2.2
2017-Mar-23 01:27 229 0 gusting 2 -2.2
2017-Mar-23 01:22 225 0 gusting 2 -2.2
2017-Mar-23 01:17 226 0 gusting 2 -2.2
2017-Mar-23 01:12 226 0 gusting 2 -2.2
2017-Mar-23 01:07 226 0 gusting 2 -2.2
2017-Mar-23 01:02 226 0 gusting 3 -2.2
2017-Mar-23 00:57 226 -2.2
2017-Mar-23 00:52 226 0 gusting 3 -2.2
2017-Mar-23 00:47 226 0 gusting 3 -2.2
2017-Mar-23 00:42 226 0 gusting 3 -2.2
2017-Mar-23 00:37 226 0 gusting 2 -2.2
2017-Mar-23 00:32 226 0 gusting 2 -2.2
2017-Mar-23 00:27 226 -1.7
2017-Mar-23 00:22 226 -1.7
2017-Mar-23 00:17 226 0 gusting 4 -1.7
2017-Mar-23 00:12 225 0 gusting 4 -1.7
2017-Mar-23 00:07 225 0 gusting 4 -1.7
2017-Mar-23 00:02 225 1 gusting 4 -1.7
2017-Mar-22 23:57 225 1 gusting 5 -1.7
2017-Mar-22 23:52 231 1 gusting 5 -1.1
2017-Mar-22 23:47 228 2 gusting 6 -1.1
2017-Mar-22 23:42 247 2 gusting 6 -1.1
2017-Mar-22 23:37 228 2 gusting 6 -1.1
2017-Mar-22 23:32 243 2 gusting 6 -1.1
2017-Mar-22 23:27 235 2 gusting 6 -1.1
2017-Mar-22 23:22 216 2 gusting 6 -1.1
2017-Mar-22 23:17 231 2 gusting 7 -1.1
2017-Mar-22 23:12 232 2 gusting 7 -1.1
2017-Mar-22 23:07 229 2 gusting 7 -1.1
2017-Mar-22 23:02 236 2 gusting 7 -1.1
2017-Mar-22 22:57 241 2 gusting 7 -1.1
2017-Mar-22 22:52 250 2 gusting 7 -0.6
2017-Mar-22 22:47 238 2 gusting 6 -0.6
2017-Mar-22 22:42 227 2 gusting 6 -0.6
2017-Mar-22 22:37 253 1 gusting 6 -0.6
2017-Mar-22 22:32 236 1 gusting 6 -0.6
2017-Mar-22 22:27 232 2 gusting 6 -0.6
2017-Mar-22 22:22 234 2 gusting 6 -0.6
2017-Mar-22 22:17 244 2 gusting 5 -0.6
2017-Mar-22 22:12 229 2 gusting 5 -0.6
2017-Mar-22 22:07 239 2 gusting 5 -0.6
2017-Mar-22 22:02 223 2 gusting 5 -0.6
2017-Mar-22 21:57 239 2 gusting 6 -0.6
2017-Mar-22 21:52 233 2 gusting 6 -0.6
2017-Mar-22 21:47 236 2 gusting 6 -0.0
2017-Mar-22 21:42 239 1 gusting 6 -0.0
2017-Mar-22 21:37 247 1 gusting 6 -0.0
2017-Mar-22 21:32 250 2 gusting 6 -0.0
2017-Mar-22 21:27 243 2 gusting 6 -0.0
2017-Mar-22 21:22 239 2 gusting 6 -0.0
2017-Mar-22 21:17 239 3 gusting 6 -0.0
2017-Mar-22 21:12 247 3 gusting 6 -0.0
2017-Mar-22 21:07 249 3 gusting 6 -0.0
2017-Mar-22 21:02 232 2 gusting 6 0.6
2017-Mar-22 20:57 257 1 gusting 6 0.6
2017-Mar-22 20:52 252 2 gusting 8 0.6
2017-Mar-22 20:47 227 2 gusting 8 0.6
2017-Mar-22 20:42 267 2 gusting 8 0.6
2017-Mar-22 20:37 230 3 gusting 6 0.6
2017-Mar-22 20:32 249 2 gusting 6 0.6
2017-Mar-22 20:27 242 1 gusting 7 0.6
2017-Mar-22 20:22 242 1 gusting 7 0.6
2017-Mar-22 20:17 226 2 gusting 7 0.6
2017-Mar-22 20:12 213 2 gusting 7 0.6
2017-Mar-22 20:07 242 2 gusting 7 0.6
2017-Mar-22 20:02 232 2 gusting 7 0.6
2017-Mar-22 19:57 248 2 gusting 6 0.6
2017-Mar-22 19:52 257 1 gusting 6 0.6
2017-Mar-22 19:47 251 2 gusting 6 0.6
2017-Mar-22 19:42 221 2 gusting 8 0.6
2017-Mar-22 19:37 213 2 gusting 8 1.1
2017-Mar-22 19:32 194 2 gusting 8 1.1
2017-Mar-22 19:27 205 2 gusting 8 1.1
2017-Mar-22 19:22 246 2 gusting 8 1.1
2017-Mar-22 19:17 225 3 gusting 8 1.1
2017-Mar-22 19:12 235 3 gusting 8 1.1
2017-Mar-22 19:07 211 2 gusting 8 1.1
2017-Mar-22 19:02 264 2 gusting 8 1.1
2017-Mar-22 18:57 231 2 gusting 8 1.1
2017-Mar-22 18:52 261 2 gusting 9 1.1
2017-Mar-22 18:47 243 2 gusting 9 1.1
2017-Mar-22 18:42 245 2 gusting 9 1.1
2017-Mar-22 18:37 238 3 gusting 9 1.1
2017-Mar-22 18:32 223 3 gusting 9 1.1
2017-Mar-22 18:27 206 3 gusting 9 1.1
2017-Mar-22 18:22 244 3 gusting 6 1.1
2017-Mar-22 18:17 225 3 gusting 6 1.1
2017-Mar-22 18:12 229 1 gusting 8 1.1
2017-Mar-22 18:07 215 2 gusting 8 1.1
2017-Mar-22 18:02 231 2 gusting 8 1.1
2017-Mar-22 17:57 229 1 gusting 7 1.1
2017-Mar-22 17:52 232 2 gusting 7 1.1
2017-Mar-22 17:47 207 2 gusting 7 1.1
2017-Mar-22 17:42 227 1 gusting 7 1.1
2017-Mar-22 17:37 239 1 gusting 7 1.7
2017-Mar-22 17:32 229 2 gusting 7 1.7
2017-Mar-22 17:27 225 2 gusting 8 1.7
2017-Mar-22 17:22 246 2 gusting 8 1.7
2017-Mar-22 17:17 242 2 gusting 8 1.7
2017-Mar-22 17:12 242 2 gusting 8 1.7
2017-Mar-22 17:07 242 2 gusting 9 2.2
2017-Mar-22 17:02 248 2 gusting 9 2.2
2017-Mar-22 16:57 257 2 gusting 9 2.2
2017-Mar-22 16:52 237 2 gusting 12 2.2
2017-Mar-22 16:47 218 2 gusting 12 2.8
2017-Mar-22 16:42 267 3 gusting 12 2.8
2017-Mar-22 16:37 211 3 gusting 9 2.8
2017-Mar-22 16:32 238 3 gusting 9 2.8
2017-Mar-22 16:27 244 4 gusting 9 2.8
2017-Mar-22 16:22 262 3 gusting 9 2.8
2017-Mar-22 16:17 261 3 gusting 9 2.8
2017-Mar-22 16:12 259 2 gusting 9 2.8
2017-Mar-22 16:07 267 3 gusting 11 2.8
2017-Mar-22 15:57 258 3 gusting 11 3.3
2017-Mar-22 15:52 259 4 gusting 17 3.3
2017-Mar-22 15:47 267 6 gusting 17 3.3
2017-Mar-22 15:42 287 6 gusting 17 3.9
2017-Mar-22 15:37 267 4 gusting 9 3.9
2017-Mar-22 15:32 245 3 gusting 9 3.9
2017-Mar-22 15:27 194 3 gusting 11 3.9
2017-Mar-22 15:22 261 3 gusting 11 3.9
2017-Mar-22 15:17 225 4 gusting 11 4.4
2017-Mar-22 15:12 221 4 gusting 9 4.4
2017-Mar-22 15:02 244 3 gusting 9 4.4
2017-Mar-22 14:57 242 3 gusting 8 4.4
2017-Mar-22 14:52 233 4 gusting 8 4.4
2017-Mar-22 14:47 237 3 gusting 10 4.4
2017-Mar-22 14:42 253 3 gusting 10 4.4
2017-Mar-22 14:37 248 4 gusting 10 4.4
2017-Mar-22 14:32 191 4 gusting 10 4.4
2017-Mar-22 14:27 269 4 gusting 10 4.4
2017-Mar-22 14:22 252 3 gusting 10 4.4
2017-Mar-22 14:17 227 3 gusting 10 4.4
2017-Mar-22 14:12 235 3 gusting 10 4.4
2017-Mar-22 14:07 226 3 gusting 9 4.4
2017-Mar-22 14:02 246 4 gusting 9 4.4
2017-Mar-22 13:57 245 4 gusting 9 4.4
2017-Mar-22 13:52 230 3 gusting 11 4.4
2017-Mar-22 13:47 238 4 gusting 11 4.4
2017-Mar-22 13:42 226 4 gusting 11 4.4
2017-Mar-22 13:37 215 3 gusting 12 4.4
2017-Mar-22 13:32 186 3 gusting 12 4.4
2017-Mar-22 13:27 221 4 gusting 12 4.4
2017-Mar-22 13:22 212 4 gusting 13 4.4
2017-Mar-22 13:17 211 3 gusting 13 4.4
2017-Mar-22 13:12 231 3 gusting 11 4.4
2017-Mar-22 13:07 233 3 gusting 11 4.4
2017-Mar-22 13:02 242 4 gusting 11 4.4
2017-Mar-22 12:57 212 4 gusting 8 4.4
2017-Mar-22 12:52 248 2 gusting 8 4.4
2017-Mar-22 12:47 252 3 gusting 13 4.4
2017-Mar-22 12:42 237 4 gusting 13 4.4
2017-Mar-22 12:37 212 5 gusting 10 4.4
2017-Mar-22 12:32 224 4 gusting 10 4.4
2017-Mar-22 12:27 234 4 gusting 10 4.4
2017-Mar-22 12:22 224 3 gusting 11 4.4
2017-Mar-22 12:17 223 2 gusting 11 4.4
2017-Mar-22 12:12 228 3 gusting 9 4.4
2017-Mar-22 12:07 258 2 gusting 9 4.4
2017-Mar-22 12:02 255 3 gusting 9 4.4
2017-Mar-22 11:57 245 4 gusting 11 4.4
2017-Mar-22 11:52 253 4 gusting 11 4.4
2017-Mar-22 11:47 283 3 gusting 13 4.4
2017-Mar-22 11:42 267 4 gusting 13 4.4
2017-Mar-22 11:37 269 5 gusting 13 4.4
2017-Mar-22 11:32 254 5 gusting 10 3.9
2017-Mar-22 11:27 244 5 gusting 10 3.9
2017-Mar-22 11:22 240 5 gusting 10 3.9
2017-Mar-22 11:17 258 4 gusting 11 3.9
2017-Mar-22 11:12 263 2 gusting 11 3.9
2017-Mar-22 11:07 250 3 gusting 11 3.3
2017-Mar-22 11:02 269 3 gusting 14 3.3
2017-Mar-22 10:57 257 3 gusting 14 3.3
2017-Mar-22 10:52 244 4 gusting 14 3.3
2017-Mar-22 10:47 222 4 gusting 8 3.3
2017-Mar-22 10:42 270 3 gusting 8 3.3
2017-Mar-22 10:37 273 3 gusting 8 3.3
2017-Mar-22 10:32 236 3 gusting 10 3.3
2017-Mar-22 10:27 228 3 gusting 10 3.3
2017-Mar-22 10:22 295 4 gusting 10 3.3
2017-Mar-22 10:17 237 4 gusting 12 3.3
2017-Mar-22 10:12 268 3 gusting 12 3.3
2017-Mar-22 10:07 268 3 gusting 12 3.3
2017-Mar-22 10:02 261 4 gusting 12 3.3
2017-Mar-22 09:57 259 5 gusting 12 3.3
2017-Mar-22 09:52 273 5 gusting 12 3.3
2017-Mar-22 09:47 264 4 gusting 19 3.3
2017-Mar-22 09:42 261 5 gusting 19 3.3
2017-Mar-22 09:37 267 5 gusting 19 2.8
2017-Mar-22 09:32 265 5 gusting 10 2.8
2017-Mar-22 09:27 235 4 gusting 10 2.8
2017-Mar-22 09:22 228 5 gusting 10 2.8
2017-Mar-22 09:17 246 5 gusting 12 2.8
2017-Mar-22 09:12 261 5 gusting 12 2.8
2017-Mar-22 09:07 261 4 gusting 10 2.8
2017-Mar-22 09:02 258 3 gusting 10 2.8
2017-Mar-22 08:57 240 4 gusting 10 2.8
2017-Mar-22 08:52 271 4 gusting 11 2.8
2017-Mar-22 08:47 250 4 gusting 11 2.8
2017-Mar-22 08:42 249 4 gusting 11 2.8
2017-Mar-22 08:37 225 4 gusting 13 2.8
2017-Mar-22 08:32 183 4 gusting 13 2.2
2017-Mar-22 08:27 241 3 gusting 13 2.2
2017-Mar-22 08:22 244 4 gusting 13 2.2
2017-Mar-22 08:17 213 4 gusting 13 2.2
2017-Mar-22 08:12 217 5 gusting 9 2.2
2017-Mar-22 08:07 200 5 gusting 9 2.2
2017-Mar-22 08:02 221 4 gusting 9 1.7
2017-Mar-22 07:57 227 3 gusting 11 1.7
2017-Mar-22 07:52 228 2 gusting 11 1.7
2017-Mar-22 07:47 234 4 gusting 13 1.7
2017-Mar-22 07:42 231 5 gusting 13 1.7
2017-Mar-22 07:37 228 5 gusting 13 1.7
2017-Mar-22 07:32 227 5 gusting 11 1.7
2017-Mar-22 07:27 227 6 gusting 11 1.7
2017-Mar-22 07:22 224 5 gusting 11 2.2
2017-Mar-22 07:17 263 5 gusting 10 2.2
2017-Mar-22 07:12 242 4 gusting 10 2.2
2017-Mar-22 07:07 217 3 gusting 13 2.2
2017-Mar-22 07:02 219 4 gusting 13 2.2
2017-Mar-22 06:57 206 5 gusting 13 2.2
2017-Mar-22 06:52 206 6 gusting 14 2.2
2017-Mar-22 06:47 200 6 gusting 14 2.2
2017-Mar-22 06:42 234 5 gusting 14 2.2
2017-Mar-22 06:37 248 6 gusting 13 2.2
2017-Mar-22 06:32 231 6 gusting 13 2.2
2017-Mar-22 06:27 238 5 gusting 13 2.2
2017-Mar-22 06:22 230 4 gusting 11 2.2
2017-Mar-22 06:17 198 3 gusting 11 2.2
2017-Mar-22 06:12 280 4 gusting 11 2.2
2017-Mar-22 06:07 238 4 gusting 11 2.2
2017-Mar-22 06:02 230 4 gusting 11 2.2
2017-Mar-22 05:57 235 4 gusting 10 2.2
2017-Mar-22 05:52 200 4 gusting 10 2.2
2017-Mar-22 05:47 230 4 gusting 12 2.2
2017-Mar-22 05:42 224 4 gusting 12 2.2
2017-Mar-22 05:37 215 5 gusting 12 2.2
2017-Mar-22 05:32 222 5 gusting 11 2.2
2017-Mar-22 05:27 209 4 gusting 11 2.2
2017-Mar-22 05:22 250 5 gusting 11 2.2
2017-Mar-22 05:17 207 5 gusting 11 2.2
2017-Mar-22 05:12 228 5 gusting 11 2.2
2017-Mar-22 05:07 201 3 gusting 11 1.7
2017-Mar-22 05:02 190 4 gusting 13 1.7
2017-Mar-22 04:57 259 5 gusting 13 1.7
2017-Mar-22 04:52 178 5 gusting 13 1.7
2017-Mar-22 04:47 232 5 gusting 8 1.7
2017-Mar-22 04:42 285 5 gusting 8 1.7
2017-Mar-22 04:37 230 4 gusting 8 1.7
2017-Mar-22 04:32 215 3 gusting 11 1.7
2017-Mar-22 04:27 219 3 gusting 11 1.7
2017-Mar-22 04:22 211 3 gusting 11 1.7
2017-Mar-22 04:17 241 4 gusting 11 1.7
2017-Mar-22 04:12 257 5 gusting 11 1.7
2017-Mar-22 04:07 196 5 gusting 11 1.7
2017-Mar-22 04:02 219 4 gusting 11 1.7
2017-Mar-22 03:57 225 4 gusting 11 1.7
2017-Mar-22 03:52 215 5 gusting 11 1.7
2017-Mar-22 03:47 207 4 gusting 8 1.7
2017-Mar-22 03:42 219 2 gusting 8 1.7
2017-Mar-22 03:37 214 3 gusting 8 1.7
2017-Mar-22 03:32 225 3 gusting 11 1.7
2017-Mar-22 03:27 214 3 gusting 11 1.7
2017-Mar-22 03:22 223 2 gusting 11 1.7
2017-Mar-22 03:17 206 3 gusting 11 1.7
2017-Mar-22 03:12 211 4 gusting 11 1.7
2017-Mar-22 03:07 214 4 gusting 11 1.7
2017-Mar-22 03:02 215 4 gusting 11 1.7
2017-Mar-22 02:57 212 4 gusting 11 1.7
2017-Mar-22 02:52 192 4 gusting 9 1.7
2017-Mar-22 02:47 212 4 gusting 9 1.7
2017-Mar-22 02:42 217 4 gusting 11 1.7
2017-Mar-22 02:37 236 4 gusting 11 1.7
2017-Mar-22 02:32 198 4 gusting 13 1.7
2017-Mar-22 02:27 232 5 gusting 13 1.7
2017-Mar-22 02:22 219 5 gusting 12 1.7
2017-Mar-22 02:17 239 5 gusting 12 1.1
2017-Mar-22 02:12 232 4 gusting 8 1.1
2017-Mar-22 02:07 216 3 gusting 8 1.1
2017-Mar-22 02:02 231 2 gusting 6 1.1
2017-Mar-22 01:57 177 2 gusting 6 1.1
2017-Mar-22 01:52 258 2 gusting 5 1.1
2017-Mar-22 01:47 169 1 gusting 5 1.1
2017-Mar-22 01:42 167 1 gusting 5 1.1
2017-Mar-22 01:37 203 1 gusting 5 1.1
2017-Mar-22 01:32 211 1 gusting 6 1.1
2017-Mar-22 01:27 247 1 gusting 6 1.1
2017-Mar-22 01:22 219 2 gusting 6 1.1
2017-Mar-22 01:17 219 2 gusting 6 1.7
2017-Mar-22 01:12 202 2 gusting 6 1.7
2017-Mar-22 01:07 223 1 gusting 6 1.7
2017-Mar-22 01:02 241 1 gusting 6 1.7